Time,TemperatureF,DewpointF,PressureIn,WindDirection,WindDirectionDegrees,WindSpeedMPH,WindSpeedGustMPH,Humidity,HourlyPrecipIn,Conditions,Clouds,dailyrainin,SoftwareType,DateUTC
2013-04-18 00:03:00,69.0,-99.9,-100.00,South,190,5.0,8.0,-999,-99.99,,,-99.99,,2013-04-18 04:03:00,
2013-04-18 00:13:00,69.0,-99.9,-100.00,South,190,5.0,8.0,-999,-99.99,,,-99.99,,2013-04-18 04:13:00,
2013-04-18 00:23:00,69.0,-99.9,-100.00,South,190,5.0,8.0,-999,-99.99,,,-99.99,,2013-04-18 04:23:00,
2013-04-18 00:33:00,69.0,-99.9,-100.00,South,190,5.0,8.0,-999,-99.99,,,-99.99,,2013-04-18 04:33:00,
2013-04-18 00:40:00,69.0,-99.9,-100.00,SE,130,5.0,7.0,-999,-99.99,,,-99.99,,2013-04-18 04:40:00,
2013-04-18 01:02:00,69.0,-99.9,-100.00,SE,130,5.0,7.0,-999,-99.99,,,-99.99,,2013-04-18 05:02:00,
2013-04-18 01:12:00,69.0,-99.9,-100.00,SE,130,5.0,7.0,-999,-99.99,,,-99.99,,2013-04-18 05:12:00,
2013-04-18 01:22:00,69.0,-99.9,-100.00,SE,130,5.0,7.0,-999,-99.99,,,-99.99,,2013-04-18 05:22:00,
2013-04-18 01:33:00,69.0,-99.9,-100.00,SE,130,5.0,7.0,-999,-99.99,,,-99.99,,2013-04-18 05:33:00,
2013-04-18 01:40:00,67.0,-99.9,-100.00,SE,140,3.0,8.0,-999,-99.99,,,-99.99,,2013-04-18 05:40:00,
2013-04-18 02:02:00,67.0,-99.9,-100.00,SE,140,3.0,8.0,-999,-99.99,,,-99.99,,2013-04-18 06:02:00,
2013-04-18 02:12:00,67.0,-99.9,-100.00,SE,140,3.0,8.0,-999,-99.99,,,-99.99,,2013-04-18 06:12:00,
2013-04-18 02:22:00,67.0,-99.9,-100.00,SE,140,3.0,8.0,-999,-99.99,,,-99.99,,2013-04-18 06:22:00,
2013-04-18 02:32:00,67.0,-99.9,-100.00,SE,140,3.0,8.0,-999,-99.99,,,-99.99,,2013-04-18 06:32:00,
2013-04-18 02:40:00,66.0,-99.9,-100.00,South,170,2.0,8.0,-999,-99.99,,,-99.99,,2013-04-18 06:40:00,
2013-04-18 03:02:00,66.0,-99.9,-100.00,South,170,2.0,8.0,-999,-99.99,,,-99.99,,2013-04-18 07:02:00,
2013-04-18 03:12:00,66.0,-99.9,-100.00,South,170,2.0,8.0,-999,-99.99,,,-99.99,,2013-04-18 07:12:00,
2013-04-18 03:22:00,66.0,-99.9,-100.00,South,170,2.0,8.0,-999,-99.99,,,-99.99,,2013-04-18 07:22:00,
2013-04-18 03:32:00,66.0,-99.9,-100.00,South,170,2.0,8.0,-999,-99.99,,,-99.99,,2013-04-18 07:32:00,
2013-04-18 03:40:00,63.0,-99.9,-100.00,South,180,2.0,6.0,-999,-99.99,,,-99.99,,2013-04-18 07:40:00,
2013-04-18 04:02:00,63.0,-99.9,-100.00,South,180,2.0,6.0,-999,-99.99,,,-99.99,,2013-04-18 08:02:00,
2013-04-18 04:12:00,63.0,-99.9,-100.00,South,180,2.0,6.0,-999,-99.99,,,-99.99,,2013-04-18 08:12:00,
2013-04-18 04:22:00,63.0,-99.9,-100.00,South,180,2.0,6.0,-999,-99.99,,,-99.99,,2013-04-18 08:22:00,
2013-04-18 04:32:00,63.0,-99.9,-100.00,South,180,2.0,6.0,-999,-99.99,,,-99.99,,2013-04-18 08:32:00,
2013-04-18 04:40:00,63.0,-99.9,-100.00,North,0,0.0,2.0,-999,-99.99,,,-99.99,,2013-04-18 08:40:00,
2013-04-18 05:02:00,63.0,-99.9,-100.00,North,0,0.0,2.0,-999,-99.99,,,-99.99,,2013-04-18 09:02:00,
2013-04-18 05:12:00,63.0,-99.9,-100.00,North,0,0.0,2.0,-999,-99.99,,,-99.99,,2013-04-18 09:12:00,
2013-04-18 05:22:00,63.0,-99.9,-100.00,North,0,0.0,2.0,-999,-99.99,,,-99.99,,2013-04-18 09:22:00,
2013-04-18 05:33:00,63.0,-99.9,-100.00,North,0,0.0,2.0,-999,-99.99,,,-99.99,,2013-04-18 09:33:00,
2013-04-18 05:40:00,63.0,-99.9,-100.00,NNE,30,2.0,3.0,-999,-99.99,,,-99.99,,2013-04-18 09:40:00,
2013-04-18 06:03:00,63.0,-99.9,-100.00,NNE,30,2.0,3.0,-999,-99.99,,,-99.99,,2013-04-18 10:03:00,
2013-04-18 06:12:00,63.0,-99.9,-100.00,NNE,30,2.0,3.0,-999,-99.99,,,-99.99,,2013-04-18 10:12:00,
2013-04-18 06:23:00,63.0,-99.9,-100.00,NNE,30,2.0,3.0,-999,-99.99,,,-99.99,,2013-04-18 10:23:00,
2013-04-18 06:33:00,63.0,-99.9,-100.00,NNE,30,2.0,3.0,-999,-99.99,,,-99.99,,2013-04-18 10:33:00,
2013-04-18 06:40:00,63.0,-99.9,-100.00,NNE,30,1.0,2.0,-999,-99.99,,,-99.99,,2013-04-18 10:40:00,
2013-04-18 07:03:00,63.0,-99.9,-100.00,NNE,30,1.0,2.0,-999,-99.99,,,-99.99,,2013-04-18 11:03:00,
2013-04-18 07:12:00,63.0,-99.9,-100.00,NNE,30,1.0,2.0,-999,-99.99,,,-99.99,,2013-04-18 11:12:00,
2013-04-18 07:22:00,63.0,-99.9,-100.00,NNE,30,1.0,2.0,-999,-99.99,,,-99.99,,2013-04-18 11:22:00,
2013-04-18 07:33:00,63.0,-99.9,-100.00,NNE,30,1.0,2.0,-999,-99.99,,,-99.99,,2013-04-18 11:33:00,
2013-04-18 07:40:00,62.0,-99.9,-100.00,ENE,60,1.0,6.0,-999,-99.99,,,-99.99,,2013-04-18 11:40:00,
2013-04-18 08:02:00,62.0,-99.9,-100.00,ENE,60,1.0,6.0,-999,-99.99,,,-99.99,,2013-04-18 12:02:00,
2013-04-18 08:12:00,62.0,-99.9,-100.00,ENE,60,1.0,6.0,-999,-99.99,,,-99.99,,2013-04-18 12:12:00,
2013-04-18 08:23:00,62.0,-99.9,-100.00,ENE,60,1.0,6.0,-999,-99.99,,,-99.99,,2013-04-18 12:23:00,
2013-04-18 08:32:00,62.0,-99.9,-100.00,ENE,60,1.0,6.0,-999,-99.99,,,-99.99,,2013-04-18 12:32:00,
2013-04-18 08:40:00,63.0,-99.9,-100.00,SE,130,2.0,3.0,-999,-99.99,,,-99.99,,2013-04-18 12:40:00,
2013-04-18 09:03:00,63.0,-99.9,-100.00,SE,130,2.0,3.0,-999,-99.99,,,-99.99,,2013-04-18 13:03:00,
2013-04-18 09:13:00,63.0,-99.9,-100.00,SE,130,2.0,3.0,-999,-99.99,,,-99.99,,2013-04-18 13:13:00,
2013-04-18 09:22:00,63.0,-99.9,-100.00,SE,130,2.0,3.0,-999,-99.99,,,-99.99,,2013-04-18 13:22:00,
2013-04-18 09:33:00,63.0,-99.9,-100.00,SE,130,2.0,3.0,-999,-99.99,,,-99.99,,2013-04-18 13:33:00,
2013-04-18 09:40:00,70.0,-99.9,-100.00,North,0,0.0,3.0,-999,-99.99,,,-99.99,,2013-04-18 13:40:00,
2013-04-18 10:03:00,70.0,-99.9,-100.00,North,0,0.0,3.0,-999,-99.99,,,-99.99,,2013-04-18 14:03:00,
2013-04-18 10:13:00,70.0,-99.9,-100.00,North,0,0.0,3.0,-999,-99.99,,,-99.99,,2013-04-18 14:13:00,
2013-04-18 10:22:00,70.0,-99.9,-100.00,North,0,0.0,3.0,-999,-99.99,,,-99.99,,2013-04-18 14:22:00,
2013-04-18 10:33:00,70.0,-99.9,-100.00,North,0,0.0,3.0,-999,-99.99,,,-99.99,,2013-04-18 14:33:00,
2013-04-18 10:40:00,76.0,-99.9,-100.00,North,0,0.0,3.0,-999,-99.99,,,-99.99,,2013-04-18 14:40:00,
2013-04-18 11:03:00,76.0,-99.9,-100.00,North,0,0.0,3.0,-999,-99.99,,,-99.99,,2013-04-18 15:03:00,
2013-04-18 11:12:00,76.0,-99.9,-100.00,North,0,0.0,3.0,-999,-99.99,,,-99.99,,2013-04-18 15:12:00,
2013-04-18 11:23:00,76.0,-99.9,-100.00,North,0,0.0,3.0,-999,-99.99,,,-99.99,,2013-04-18 15:23:00,
2013-04-18 11:33:00,76.0,-99.9,-100.00,North,0,0.0,3.0,-999,-99.99,,,-99.99,,2013-04-18 15:33:00,
2013-04-18 11:40:00,76.0,-99.9,-100.00,SSE,160,5.0,10.0,-999,-99.99,,,-99.99,,2013-04-18 15:40:00,
2013-04-18 12:03:00,76.0,-99.9,-100.00,SSE,160,5.0,10.0,-999,-99.99,,,-99.99,,2013-04-18 16:03:00,
2013-04-18 12:13:00,76.0,-99.9,-100.00,SSE,160,5.0,10.0,-999,-99.99,,,-99.99,,2013-04-18 16:13:00,
2013-04-18 12:23:00,76.0,-99.9,-100.00,SSE,160,5.0,10.0,-999,-99.99,,,-99.99,,2013-04-18 16:23:00,
2013-04-18 12:33:00,76.0,-99.9,-100.00,SSE,160,5.0,10.0,-999,-99.99,,,-99.99,,2013-04-18 16:33:00,
2013-04-18 12:40:00,78.0,-99.9,-100.00,North,0,0.0,11.0,-999,-99.99,,,-99.99,,2013-04-18 16:40:00,
2013-04-18 13:03:00,78.0,-99.9,-100.00,North,0,0.0,11.0,-999,-99.99,,,-99.99,,2013-04-18 17:03:00,
2013-04-18 13:13:00,78.0,-99.9,-100.00,North,0,0.0,11.0,-999,-99.99,,,-99.99,,2013-04-18 17:13:00,
2013-04-18 13:22:00,78.0,-99.9,-100.00,North,0,0.0,11.0,-999,-99.99,,,-99.99,,2013-04-18 17:22:00,
2013-04-18 13:33:00,78.0,-99.9,-100.00,North,0,0.0,11.0,-999,-99.99,,,-99.99,,2013-04-18 17:33:00,
2013-04-18 13:40:00,78.0,-99.9,-100.00,North,0,0.0,14.0,-999,-99.99,,,-99.99,,2013-04-18 17:40:00,
2013-04-18 14:03:00,78.0,-99.9,-100.00,North,0,0.0,14.0,-999,-99.99,,,-99.99,,2013-04-18 18:03:00,
2013-04-18 14:13:00,78.0,-99.9,-100.00,North,0,0.0,14.0,-999,-99.99,,,-99.99,,2013-04-18 18:13:00,
2013-04-18 14:23:00,78.0,-99.9,-100.00,North,0,0.0,14.0,-999,-99.99,,,-99.99,,2013-04-18 18:23:00,
2013-04-18 14:33:00,78.0,-99.9,-100.00,North,0,0.0,14.0,-999,-99.99,,,-99.99,,2013-04-18 18:33:00,
2013-04-18 14:40:00,80.0,-99.9,-100.00,ESE,110,2.0,11.0,-999,-99.99,,,-99.99,,2013-04-18 18:40:00,
2013-04-18 15:03:00,80.0,-99.9,-100.00,ESE,110,2.0,11.0,-999,-99.99,,,-99.99,,2013-04-18 19:03:00,
2013-04-18 15:13:00,80.0,-99.9,-100.00,ESE,110,2.0,11.0,-999,-99.99,,,-99.99,,2013-04-18 19:13:00,
2013-04-18 15:22:00,80.0,-99.9,-100.00,ESE,110,2.0,11.0,-999,-99.99,,,-99.99,,2013-04-18 19:22:00,
2013-04-18 15:33:00,80.0,-99.9,-100.00,ESE,110,2.0,11.0,-999,-99.99,,,-99.99,,2013-04-18 19:33:00,
2013-04-18 15:40:00,79.0,-99.9,-100.00,East,100,2.0,15.0,-999,-99.99,,,-99.99,,2013-04-18 19:40:00,
2013-04-18 16:03:00,79.0,-99.9,-100.00,East,100,2.0,15.0,-999,-99.99,,,-99.99,,2013-04-18 20:03:00,
2013-04-18 16:12:00,79.0,-99.9,-100.00,East,100,2.0,15.0,-999,-99.99,,,-99.99,,2013-04-18 20:12:00,
2013-04-18 16:22:00,79.0,-99.9,-100.00,East,100,2.0,15.0,-999,-99.99,,,-99.99,,2013-04-18 20:22:00,
2013-04-18 16:32:00,79.0,-99.9,-100.00,East,100,2.0,15.0,-999,-99.99,,,-99.99,,2013-04-18 20:32:00,
2013-04-18 16:40:00,79.0,-99.9,-100.00,North,0,0.0,8.0,-999,-99.99,,,-99.99,,2013-04-18 20:40:00,
2013-04-18 17:03:00,79.0,-99.9,-100.00,North,0,0.0,8.0,-999,-99.99,,,-99.99,,2013-04-18 21:03:00,
2013-04-18 17:12:00,79.0,-99.9,-100.00,North,0,0.0,8.0,-999,-99.99,,,-99.99,,2013-04-18 21:12:00,
2013-04-18 17:22:00,79.0,-99.9,-100.00,North,0,0.0,8.0,-999,-99.99,,,-99.99,,2013-04-18 21:22:00,
2013-04-18 17:33:00,79.0,-99.9,-100.00,North,0,0.0,8.0,-999,-99.99,,,-99.99,,2013-04-18 21:33:00,
2013-04-18 17:40:00,80.0,-99.9,-100.00,SE,130,6.0,21.0,-999,-99.99,,,-99.99,,2013-04-18 21:40:00,
2013-04-18 18:03:00,80.0,-99.9,-100.00,SE,130,6.0,21.0,-999,-99.99,,,-99.99,,2013-04-18 22:03:00,
2013-04-18 18:13:00,80.0,-99.9,-100.00,SE,130,6.0,21.0,-999,-99.99,,,-99.99,,2013-04-18 22:13:00,
2013-04-18 18:23:00,80.0,-99.9,-100.00,SE,130,6.0,21.0,-999,-99.99,,,-99.99,,2013-04-18 22:23:00,
2013-04-18 18:33:00,80.0,-99.9,-100.00,SE,130,6.0,21.0,-999,-99.99,,,-99.99,,2013-04-18 22:33:00,
2013-04-18 18:40:00,80.0,-99.9,-100.00,SSE,160,3.0,13.0,-999,-99.99,,,-99.99,,2013-04-18 22:40:00,
2013-04-18 19:04:00,80.0,-99.9,-100.00,SSE,160,3.0,13.0,-999,-99.99,,,-99.99,,2013-04-18 23:04:00,
2013-04-18 19:12:00,80.0,-99.9,-100.00,SSE,160,3.0,13.0,-999,-99.99,,,-99.99,,2013-04-18 23:12:00,
2013-04-18 19:22:00,80.0,-99.9,-100.00,SSE,160,3.0,13.0,-999,-99.99,,,-99.99,,2013-04-18 23:22:00,
2013-04-18 19:32:00,80.0,-99.9,-100.00,SSE,160,3.0,13.0,-999,-99.99,,,-99.99,,2013-04-18 23:32:00,
2013-04-18 19:40:00,76.0,-99.9,-100.00,SSW,200,3.0,14.0,-999,-99.99,,,-99.99,,2013-04-18 23:40:00,
2013-04-18 20:02:00,76.0,-99.9,-100.00,SSW,200,3.0,14.0,-999,-99.99,,,-99.99,,2013-04-19 00:02:00,
2013-04-18 20:12:00,76.0,-99.9,-100.00,SSW,200,3.0,14.0,-999,-99.99,,,-99.99,,2013-04-19 00:12:00,
2013-04-18 20:22:00,76.0,-99.9,-100.00,SSW,200,3.0,14.0,-999,-99.99,,,-99.99,,2013-04-19 00:22:00,
2013-04-18 20:32:00,76.0,-99.9,-100.00,SSW,200,3.0,14.0,-999,-99.99,,,-99.99,,2013-04-19 00:32:00,
2013-04-18 20:40:00,75.0,-99.9,-100.00,SSE,150,2.0,8.0,-999,-99.99,,,-99.99,,2013-04-19 00:40:00,
2013-04-18 21:01:00,75.0,-99.9,-100.00,SSE,150,2.0,8.0,-999,-99.99,,,-99.99,,2013-04-19 01:01:00,
2013-04-18 21:11:00,75.0,-99.9,-100.00,SSE,150,2.0,8.0,-999,-99.99,,,-99.99,,2013-04-19 01:11:00,
2013-04-18 21:21:00,75.0,-99.9,-100.00,SSE,150,2.0,8.0,-999,-99.99,,,-99.99,,2013-04-19 01:21:00,
2013-04-18 21:32:00,75.0,-99.9,-100.00,SSE,150,2.0,8.0,-999,-99.99,,,-99.99,,2013-04-19 01:32:00,
2013-04-18 21:40:00,74.0,-99.9,-100.00,SE,140,5.0,10.0,-999,-99.99,,,-99.99,,2013-04-19 01:40:00,
2013-04-18 22:02:00,74.0,-99.9,-100.00,SE,140,5.0,10.0,-999,-99.99,,,-99.99,,2013-04-19 02:02:00,
2013-04-18 22:11:00,74.0,-99.9,-100.00,SE,140,5.0,10.0,-999,-99.99,,,-99.99,,2013-04-19 02:11:00,
2013-04-18 22:21:00,74.0,-99.9,-100.00,SE,140,5.0,10.0,-999,-99.99,,,-99.99,,2013-04-19 02:21:00,
2013-04-18 22:32:00,74.0,-99.9,-100.00,SE,140,5.0,10.0,-999,-99.99,,,-99.99,,2013-04-19 02:32:00,
2013-04-18 22:40:00,73.0,-99.9,-100.00,SSE,150,5.0,10.0,-999,-99.99,,,-99.99,,2013-04-19 02:40:00,
2013-04-18 23:02:00,73.0,-99.9,-100.00,SSE,150,5.0,10.0,-999,-99.99,,,-99.99,,2013-04-19 03:02:00,
2013-04-18 23:12:00,73.0,-99.9,-100.00,SSE,150,5.0,10.0,-999,-99.99,,,-99.99,,2013-04-19 03:12:00,
2013-04-18 23:22:00,73.0,-99.9,-100.00,SSE,150,5.0,10.0,-999,-99.99,,,-99.99,,2013-04-19 03:22:00,
2013-04-18 23:33:00,73.0,-99.9,-100.00,SSE,150,5.0,10.0,-999,-99.99,,,-99.99,,2013-04-19 03:33:00,
2013-04-18 23:40:00,72.0,-99.9,-100.00,SE,140,11.0,22.0,-999,-99.99,,,-99.99,,2013-04-19 03:40:00,